カタログに戻る

BEIDOU 11

運用中ナビゲーションGEO
NORAD 38091·PAYLOAD·🇨🇳 China

打ち上げ Feb 24, 2012 から Xichang Satellite Launch Center

Loading…

TLE

最新Source: Space-Track

元期: Sep 14, 2026, 14:04 UTC

1 38091U 12008A   26257.58671440  .00000050  00000-0  00000-0 0  9994
2 38091   3.7918  69.0513 0006764 240.3109 314.1309  1.00268706 53264

AllMySatでBEIDOU 11をリアルタイム追跡

Download on the App Store